TimeCST,TemperatureF,Dew PointF,Humidity,Sea Level PressureIn,VisibilityMPH,Wind Direction,Wind SpeedMPH,Gust SpeedMPH,PrecipitationIn,Events,Conditions,WindDirDegrees,DateUTC
12:53 AM,19.0,8.1,62,30.45,10.0,NNE,13.8,-,N/A,,Scattered Clouds,30,2013-01-24 06:53:00
1:53 AM,18.0,5.0,57,30.48,10.0,NNE,13.8,-,N/A,,Scattered Clouds,30,2013-01-24 07:53:00
2:53 AM,15.1,1.9,56,30.51,10.0,NNE,13.8,-,N/A,,Scattered Clouds,20,2013-01-24 08:53:00
3:53 AM,12.9,1.0,59,30.48,10.0,NE,17.3,-,N/A,,Scattered Clouds,40,2013-01-24 09:53:00
4:53 AM,10.0,-0.0,64,30.50,10.0,NE,16.1,-,N/A,,Scattered Clouds,40,2013-01-24 10:53:00
5:53 AM,10.0,-0.0,64,30.49,10.0,ENE,15.0,-,N/A,,Scattered Clouds,60,2013-01-24 11:53:00
6:53 AM,9.0,-2.0,61,30.52,10.0,ENE,16.1,-,N/A,,Mostly Cloudy,60,2013-01-24 12:53:00
7:53 AM,8.1,-2.0,64,30.53,10.0,East,10.4,-,N/A,,Overcast,80,2013-01-24 13:53:00
8:53 AM,10.0,-2.0,58,30.53,10.0,ENE,17.3,-,N/A,,Overcast,70,2013-01-24 14:53:00
9:53 AM,12.9,-0.0,56,30.55,10.0,East,12.7,-,N/A,,Mostly Cloudy,90,2013-01-24 15:53:00
10:53 AM,15.1,-0.0,51,30.51,10.0,East,13.8,-,N/A,,Overcast,80,2013-01-24 16:53:00
11:53 AM,18.0,-0.0,45,30.50,10.0,East,11.5,-,N/A,,Overcast,100,2013-01-24 17:53:00
12:53 PM,19.9,1.0,44,30.44,10.0,East,11.5,-,N/A,,Overcast,100,2013-01-24 18:53:00
1:53 PM,21.0,1.9,44,30.39,10.0,East,16.1,-,N/A,,Overcast,100,2013-01-24 19:53:00
2:53 PM,23.0,3.0,42,30.35,10.0,ESE,11.5,-,N/A,,Overcast,110,2013-01-24 20:53:00
3:53 PM,21.9,3.9,46,30.32,10.0,East,13.8,-,N/A,,Overcast,90,2013-01-24 21:53:00
4:53 PM,23.0,3.9,44,30.30,10.0,ESE,11.5,-,N/A,,Overcast,110,2013-01-24 22:53:00
5:53 PM,23.0,5.0,46,30.28,10.0,East,13.8,-,N/A,,Overcast,90,2013-01-24 23:53:00
6:32 PM,23.0,6.8,50,30.22,10.0,ESE,13.8,-,N/A,,Overcast,110,2013-01-25 00:32:00
6:53 PM,23.0,6.1,48,30.28,10.0,ESE,16.1,-,N/A,,Overcast,110,2013-01-25 00:53:00
7:53 PM,24.1,6.1,46,30.27,10.0,SE,12.7,-,N/A,,Overcast,130,2013-01-25 01:53:00
8:53 PM,24.1,6.1,46,30.25,10.0,ESE,8.1,-,N/A,,Overcast,120,2013-01-25 02:53:00
9:53 PM,24.1,7.0,48,30.23,10.0,ESE,6.9,-,N/A,,Overcast,110,2013-01-25 03:53:00
10:53 PM,24.1,8.1,51,30.22,10.0,ESE,6.9,-,N/A,,Overcast,120,2013-01-25 04:53:00
11:53 PM,25.0,8.1,49,30.22,10.0,East,4.6,-,N/A,,Overcast,90,2013-01-25 05:53:00